Regional Weather Roundup
Issued by NWS

Home | Current Version | Previous Version | Graphics & Text | Print | Product List | Glossary On
Versions: 1 2 3 4 5 6 7 8 9 10 11 12 13 14 15 16 17 18 19 20 21 22 23 24 25 26 27 28 29 30 31 32 33 34 35 36 37 38 39 40 41 42 43 44 45 46 47 48 49 50
000
ASUS45 KSLC 040910
RWRUT

UTAH REGIONAL WEATHER ROUNDUP
NATIONAL WEATHER SERVICE SALT LAKE CITY UT
200 AM MST WED MAR 04 2015

UTZ001>011-023>025-041000-

NORTHERN UTAH

CITY           SKY/WX    TMP DP  RH WIND       PRES   REMARKS
BRIGHAM CITY   PTCLDY    23  18  81 CALM      30.05R
HILL AFB       MOCLDY    25  18  72 SE6       30.02R WCI  18
LOGAN          CLOUDY    28  21  75 NE3       30.03R
OGDEN          CLOUDY    26  19  74 S9        30.02R WCI  17
PROVO AIRPORT  PTCLDY    25  19  80 SE3       30.05R
SALT LAKE CITY MOCLDY    29  22  75 SE7       30.04R WCI  22
VERNAL         CLEAR     21  14  74 CALM      29.96R
WENDOVER       PTCLDY    30  12  47 N12       30.06R WCI  21
HEBER CITY     PTCLDY    12   9  85 CALM      30.01R
WEST JORDAN    PTCLDY    21  19  93 W7        30.04R WCI  13

$$

UTZ012>022-026-027-041000-

SOUTHERN/CENTRAL UTAH

CITY           SKY/WX    TMP DP  RH WIND       PRES   REMARKS
BLANDING       CLOUDY    27  26  97 CALM      29.97R
BRYCE CANYON   PTCLDY    10   3  73 N12       29.94R WCI  -5
CEDAR CITY     PTCLDY    13   9  84 CALM      29.99R
DELTA          CLEAR     22  19  89 S5        30.05R WCI  16
HANKSVILLE     CLEAR     28  21  74 W6        30.00R WCI  22
MILFORD        CLEAR     16  12  84 VRB3      30.03R
MOAB/CYNLANDS  CLEAR     29  18  63 W14       29.93R WCI  18
PRICE          CLEAR     25  10  53 NW7       29.94R WCI  17
ST GEORGE      MOSUNNY   36  27  69 N6        30.03S WCI  31
KANAB          CLEAR     30  16  55 NW14      30.01  WCI  20

$$

REGIONAL REPORTS     COLORADO/ARIZONA

CITY           SKY/WX    TMP DP  RH WIND       PRES   REMARKS
CRAIG, CO      CLOUDY    17   8  67 W7        29.97R WCI   8
GRAND JUNCTION LGT SNOW  28  27  96 NE5       29.94R FOG     WCI  23
RIFLE          CLOUDY    27  10  49 N8G18     29.94R WCI  19
MONTROSE       LGT SNOW  28  25  88 NW7       29.92R FOG     WCI  21
CORTEZ         CLOUDY    28  26  92 SE7       29.89R WCI  21
PAGE, AZ       CLEAR     36  15  42 W9G16     29.95R WCI  29
GRAND CANYON   CLOUDY    26  25  96 N3        29.93R
KINGMAN        CLEAR     35  32  88 E9        29.97R WCI  28
FLAGSTAFF      NOT AVBL

$$

REGIONAL REPORTS    NEVADA/IDAHO/WYOMING

CITY           SKY/WX    TMP DP  RH WIND       PRES   REMARKS
LAS VEGAS, NV  PTCLDY    47  17  30 N12       30.01R
ELY            MOCLDY     7   4  87 S9        30.05R WCI  -7
ELKO           CLEAR     16  11  80 CALM      30.09R
POCATELLO, ID  CLEAR     21  17  84 SW6       30.06R WCI  13
BURLEY         CLEAR     28  12  51 W13       30.04R WCI  17
EVANSTON, WY   CLOUDY    10   6  84 SW12      29.93R WCI  -5
ROCK SPRINGS   MOCLDY    -2  -6  83 NE7       29.96R WCI -15

$$



USA.gov is the U.S. government's official web portal to all federal, state and local government web resources and services.